Location: La Gaudinais
(48.1351°N, 1.6260°W)
Time: 23:30:28
(UTC+00:00)

Daily predictions for brighter satellites

Satellite Brightness Start Highest point End
(mag) Time Altitude Azimuth Time Altitude Azimuth Time Altitude Azimuth
BREEZE-M DEB (TANK) 4.4 20:34:50 10° W 20:38:44 83° N 20:55:53 10° E
Cosmos 2219 Rocket 2.3 20:43:23 10° NNW 20:49:07 89° WSW 20:54:48 10° SSE
ATLAS CENTAUR R/B 3.7 20:48:45 10° W 20:51:48 26° NW 20:54:58 10° NNE
BREEZE-M DEB (TANK) 3.4 20:48:20 10° WSW 20:51:54 77° SSE 21:04:26 10° ENE
ATLAS 2AS CENTAUR R/B 3.4 20:47:45 10° NW 20:54:14 48° WSW 21:00:30 10° S
CZ-4 R/B 4.3 20:52:56 10° WSW 20:54:35 12° W 20:56:14 10° WNW
Cosmos 1733 Rocket 3.2 20:52:57 10° NNW 20:57:23 79° W 21:01:49 10° S
NOSS 5 (C) 4.4 20:55:41 10° NW 20:58:51 66° NE 21:02:04 10° SE
Cosmos 1455 2.9 20:56:24 10° N 20:59:39 34° ENE 21:02:53 10° SE
Spot 2 Rocket 3.7 20:57:20 10° SSE 21:02:19 60° ENE 21:07:21 10° N
Cosmos 1655 Rocket 4.2 20:57:16 10° S 21:03:41 81° W 21:10:06 10° N
SPOT 3 Rocket 3.9 20:59:19 10° SE 21:04:19 54° ENE 21:09:24 10° N
Resurs 01 Rocket 4.2 21:05:16 10° SW 21:08:21 18° W 21:11:25 10° NW
Meteor 2-20 Rocket 4.5 21:04:59 10° N 21:11:09 72° ENE 21:17:02 10° SSE
GENESIS II 4.4 21:07:41 10° SW 21:11:18 68° NW 21:14:56 10° NE
SeaSat 1 2.8 21:08:40 10° SE 21:13:28 58° NE 21:18:19 10° NNW
Cosmos 2360 Rocket 3.8 21:13:46 10° NW 21:18:37 30° WSW 21:23:26 10° SSW
Cosmos 158 Rocket 4.3 21:13:34 10° NNW 21:18:46 59° ENE 21:23:25 12° SE
Cosmos 1953 2.2 21:15:20 10° N 21:19:09 67° E 21:22:42 11° SSE
Cosmos 1908 Rocket 3.7 21:15:05 10° N 21:19:23 59° ENE 21:23:22 12° SSE
COSMOS 2428 2.8 21:13:57 10° NNW 21:19:41 78° ENE 21:25:01 12° SSE
Cosmos 2208 Rocket 4.2 21:15:14 10° NNW 21:20:24 63° ENE 21:25:05 12° SE
Cosmos 1782 Rocket 4.4 21:19:16 10° N 21:23:16 35° ENE 21:26:41 13° SE
CENTAUR R/B 3.9 21:23:45 12° SE 21:26:25 15° ESE 21:29:57 10° ENE
Ariane Rocket 3.0 21:22:36 10° SSE 21:27:42 89° W 21:32:49 10° NNW
EXPRESS MD2 2.4 21:26:03 10° WNW 21:28:45 62° N 21:30:55 10° E
Cosmos 2084 Rocket 4.1 21:27:18 10° S 21:31:10 32° ESE 21:34:54 10° ENE
Cosmos 1486 Rocket 4.4 21:32:06 10° S 21:37:00 44° ESE 21:41:57 10° NNE
Cosmos 1315 Rocket 3.2 21:34:32 10° SSW 21:38:29 67° WNW 21:42:28 10° N
NOSS 8 (F) 4.5 21:38:00 10° SW 21:42:00 84° NW 21:45:08 10° NE
BREEZE-M DEB (TANK) 3.6 21:37:44 10° W 21:43:50 43° NNW 21:46:16 10° ENE
GP-B 3.7 21:39:56 10° NNE 21:44:07 40° E 21:47:06 17° SSE
MetOp-A 4.2 21:40:03 15° SSE 21:44:24 64° ENE 21:49:30 10° N
ARIANE 5 R/B 4.1 21:41:49 12° ESE 21:44:59 24° ENE 21:48:31 10° N
SJ 16-02 3.3 21:41:39 10° WSW 21:45:29 31° WNW 21:49:23 10° N
NOSS 0 Rocket 4.0 21:39:42 10° NNW 21:46:00 86° ENE 21:51:08 16° SSE
BlueWalker 3 2.8 21:43:21 10° W 21:47:01 50° NNW 21:50:41 10° ENE
Cosmos 371 Rocket 3.6 21:43:55 11° S 21:48:18 48° ESE 21:52:57 10° NNE
SL-4 R/B 2.7 21:45:22 10° WNW 21:48:59 38° SW 21:51:27 19° SSE
USA 234 3.5 21:44:56 10° ENE 21:51:14 47° SE 21:57:29 10° SSW
MOS 1 Rocket 4.1 21:46:28 10° S 21:51:40 55° W 21:56:42 10° NNW
Meteor 1-4 Rocket 4.5 21:49:38 10° SW 21:52:06 23° WNW 21:54:34 10° NNW
Terra 2.8 21:48:25 10° S 21:52:52 42° W 21:57:22 10° NNW
Spot 1 4.3 21:51:16 10° NNE 21:56:00 71° ESE 22:00:41 11° S
Okean 1-7 3.8 21:52:30 10° SSW 21:56:42 51° WNW 22:00:54 10° N
SL-16 R/B 3.8 21:54:00 10° NNW 21:58:49 27° NE 22:03:34 10° ESE
H-2A R/B 4.4 21:56:27 10° ESE 21:59:21 19° ENE 22:02:17 10° NNE
Cosmos 1386 Rocket 4.5 21:54:35 11° S 22:00:41 78° E 22:06:49 10° NNE
Cosmos 2237 Rocket 2.3 21:55:08 10° NNW 22:00:48 68° ENE 22:05:00 18° SE
Landsat 5 3.4 21:57:19 10° NNE 22:01:29 77° ESE 22:05:09 14° S
Cosmos 1703 Rocket 3.8 21:57:40 10° SSW 22:02:06 69° W 22:06:33 10° N
COSMOS 2455 2.8 21:57:16 10° SSW 22:03:17 84° ESE 22:09:22 10° NE
Cosmos 1242 Rocket 3.3 22:01:50 10° SW 22:04:22 35° WNW 22:06:55 10° N
Cosmos 1745 Rocket 4.1 21:58:43 13° S 22:04:29 73° E 22:10:50 10° NNE
CZ-4C R/B 1.8 22:00:58 10° SW 22:05:27 82° SE 22:11:09 10° NE
USA 281 4.0 22:00:04 12° ESE 22:05:47 44° NE 22:11:58 10° NNW
Cosmos 2227 Rocket 3.1 22:03:20 19° SSE 22:06:23 30° ESE 22:11:14 10° NE
Nadezhda 1 Rocket 4.0 22:01:52 10° N 22:08:09 88° W 22:13:03 17° S
Meteor 2-5 Rocket 4.4 22:05:17 19° SSE 22:09:06 41° E 22:14:29 10° NNE
Cosmos 773 Rocket 4.0 22:09:25 10° NNW 22:14:35 90° WNW 22:18:03 22° SSE
Cosmos 1980 3.7 22:09:38 10° NNW 22:15:21 90° ENE 22:19:14 21° SSE
Cosmos 304 Rocket 3.7 22:13:19 14° SSW 22:17:26 73° ESE 22:22:12 10° NNE
Cosmos 2297 Rocket 2.1 22:19:32 10° SSW 22:25:09 75° ESE 22:30:49 10° NNE
ALOS 2 4.3 22:25:43 14° ESE 22:28:24 24° ENE 22:31:56 10° N
Cosmos 2219 Rocket 4.4 22:29:05 10° WNW 22:32:13 15° W 22:35:19 10° SW
Cosmos 1455 4.5 22:31:30 10° NW 22:33:47 16° W 22:36:04 10° SW
CZ-2C R/B 3.7 22:30:18 10° NNE 22:34:42 62° ESE 22:37:07 26° S
Cosmos 1703 3.0 22:33:06 29° S 22:34:51 77° E 22:38:32 10° NNE
Cosmos 1408 2.8 22:33:30 22° SW 22:35:07 48° WNW 22:38:02 10° N
Cosmos 2098 Rocket 4.1 22:28:38 10° N 22:35:10 67° ENE 22:38:52 24° SSE
NOSS 3-2 (A) 4.1 22:33:40 23° SE 22:35:25 28° ESE 22:40:22 10° ENE
Cosmos 2181 Rocket 4.3 22:31:56 10° N 22:37:59 55° ENE 22:41:46 23° SE
Cosmos 2219 4.1 22:37:54 23° SE 22:40:06 30° ESE 22:44:56 10° NE
Cosmos 1777 Rocket 4.0 22:39:06 17° SSW 22:43:16 85° ESE 22:48:35 10° NNE
Cosmos 332 Rocket 3.9 22:41:58 25° S 22:44:38 59° ESE 22:49:27 10° NNE
BREEZE-M DEB (TANK) 3.7 22:42:18 10° W 22:45:23 78° N 22:54:31 10° E
Cosmos 1825 3.1 22:44:58 26° ESE 22:45:35 28° E 22:48:33 10° NNE
Cosmos 2263 Rocket 3.4 22:44:09 21° SE 22:45:55 24° ESE 22:50:18 10° NE
Meteor 1-24 Rocket 3.7 22:42:45 22° S 22:46:32 79° E 22:52:03 10° NNE
Cosmos 2221 Rocket 4.3 22:46:44 27° SE 22:48:26 38° E 22:52:33 10° NNE
SeaSat 1 4.0 22:48:17 14° SSW 22:51:12 24° WSW 22:55:10 10° NW
Cosmos 1503 Rocket 4.3 22:48:34 12° SSW 22:53:34 69° WNW 22:58:51 10° NNE
Sich 1 Rocket 3.8 22:49:47 10° N 22:54:08 58° ENE 22:56:03 30° SE
Okean 1 Rocket 3.9 22:51:25 10° N 22:55:33 39° ENE 22:57:31 25° SE
Cosmos 2242 Rocket 4.3 22:52:19 17° SSW 22:55:39 53° WNW 23:00:09 10° N
Cosmos 1538 Rocket 4.4 22:50:37 10° NNW 22:55:45 55° ENE 22:58:51 24° SE
PSLV R/B 3.8 22:53:05 10° NNE 22:57:05 75° ESE 22:58:45 34° S
Cosmos 1818 4.2 22:55:01 10° NNW 23:00:23 51° NE 23:04:38 16° ESE
Cosmos 1709 Rocket 4.4 22:58:05 16° SSW 23:03:15 64° WNW 23:09:33 10° N
Cosmos 1892 2.7 23:03:07 42° SE 23:03:56 54° E 23:07:24 10° NNE
Spot 4 3.9 23:03:31 30° SSE 23:05:54 74° ENE 23:10:44 10° N
Cosmos 1025 Rocket 4.1 23:12:05 26° SE 23:13:24 32° E 23:17:13 10° NNE
SL-23 DEB 4.5 23:09:24 10° WSW 23:13:35 81° SSE 23:21:02 10° ENE
CENTAUR R/B 2.4 23:10:49 16° SSW 23:15:34 81° SE 23:22:41 10° NE
Cosmos 405 Rocket 3.4 23:13:12 10° NNW 23:16:48 43° W 23:18:05 31° SW
ARIANE 5 R/B 3.4 23:19:17 26° SSW 23:21:10 40° W 23:25:18 10° NNW
Cosmos 1455 Rocket 4.2 23:20:37 10° N 23:24:44 35° ENE 23:26:44 23° ESE
BlueWalker 3 3.4 23:22:10 10° WNW 23:25:40 37° N 23:29:11 10° ENE
Cosmos 1328 4.0 23:25:24 41° SSE 23:26:24 55° E 23:30:13 10° NNE
Cosmos 1898 Rocket 4.1 23:25:20 29° SE 23:27:06 39° ESE 23:31:53 10° NE
Cosmos 1378 Rocket 3.7 23:25:05 30° SSW 23:27:09 66° WNW 23:31:33 10° N
Aureole 1 Rocket 3.4 23:26:55 37° SSE 23:28:02 48° ESE 23:32:49 10° NNE
Cosmos 2184 Rocket 4.1 23:26:26 28° S 23:29:59 75° E 23:36:22 10° NNE
Cosmos 1674 Rocket 3.6 23:29:17 33° SSW 23:31:09 72° W 23:35:29 10° N
H-2A R/B 2.9 23:32:26 34° SSW 23:33:56 52° W 23:38:02 10° NNW
USA 234 3.6 23:27:57 10° NE 23:34:27 69° NNW 23:40:56 10° WSW
SL-16 R/B 2.3 23:37:45 10° NNW 23:43:24 66° WSW 23:46:02 32° S
Cosmos 2237 Rocket 3.8 23:40:09 10° NW 23:44:18 21° W 23:46:48 16° SW
Cosmos 990 Rocket 4.1 23:45:21 25° SW 23:48:23 69° WNW 23:53:32 10° NNE
Cosmos 2154 Rocket 4.0 23:45:18 29° S 23:48:41 84° E 23:55:02 10° N
Cosmos 1943 3.8 23:44:21 10° NNW 23:49:52 52° ENE 23:53:53 18° SE
Cosmos 2227 Rocket 2.9 23:45:04 12° SW 23:50:10 50° NW 23:55:42 10° NNE
USA 281 3.7 23:46:56 26° SSW 23:50:15 46° WSW 23:56:34 10° NW
Cosmos 2082 3.6 23:50:40 31° SSW 23:53:24 73° ESE 23:59:01 10° NNE
PSLV R/B 3.5 23:49:28 10° NNE 23:53:38 69° ESE 23:54:55 42° S
USA 238 DEB 4.5 23:52:03 24° SE 23:54:04 29° ESE 23:59:38 10° NE
Okean 2 Rocket 4.2 23:50:23 10° NNW 23:54:28 35° W 23:56:12 25° SW
CZ-4C R/B 4.2 23:50:16 10° W 23:54:36 28° NNW 23:59:56 10° NE
Cosmos 292 Rocket 3.7 23:52:49 34° SSW 23:54:54 88° ESE 23:59:45 10° NNE
